Theta_e
350 350 339 341 345 347 346 346 346 345 345 346 344 338 341 338 338 338 340 340 339 338 338 338 338 337 335 335 336 336 335 332 331 330 338 326 341 338 326 334 338 337 330
351 350 340 340 343 344 345 345 345 346 346 346 347 346 345 343 341 338 339 340 338 339 338 335 338 338 333 338 333 333 331 332 329 338 337 325 327 330 325 339 345 333 327
351 352 343 340 341 341 342 343 345 345 344 344 345 346 346 344 343 337 337 339 340 340 342 336 338 338 340 339 332 332 334 338 332 338 336 345 344 336 336 329 334 336 335
351 352 352 340 340 340 341 341 342 344 344 342 342 343 344 344 342 336 338 339 341 341 339 341 341 337 332 332 330 339 337 339 338 338 344 339 341 338 331 337 338 333 327
351 352 352 342 340 339 339 339 339 340 341 340 340 340 340 339 338 337 338 340 343 341 340 339 339 339 335 331 337 339 340 338 337 344 345 342 339 339 339 333 335 326 330
352 352 346 342 342 340 339 338 339 339 339 339 339 339 339 338 337 339 339 340 340 342 341 342 341 341 340 339 333 335 338 334 338 342 346 341 343 327 326 325 326 323 333
353 353 346 343 343 341 339 338 339 339 339 339 338 339 340 340 339 340 337 337 338 340 339 340 341 340 339 335 333 335 332 332 344 342 342 341 342 328 340 337 336 328 330
353 353 355 344 344 342 338 337 338 339 338 338 337 337 339 342 340 338 335 335 337 338 340 339 340 342 340 334 335 335 334 336 344 343 344 342 333 327 328 332 332 331 328
353 354 355 350 346 342 339 336 335 337 337 336 336 336 338 337 337 336 335 337 336 338 340 341 341 342 342 337 339 335 337 339 347 345 346 343 336 327 327 329 336 330 325
354 354 354 356 352 351 347 336 335 335 336 336 338 335 337 339 337 338 339 339 338 339 340 340 339 342 341 334 338 341 341 342 347 347 346 345 338 332 328 338 337 329 324
355 354 356 357 355 354 353 346 340 337 337 341 343 334 343 348 346 347 346 343 340 340 341 341 339 340 341 339 335 340 341 346 347 347 346 345 340 338 331 334 336 332 327
354 354 354 354 353 353 351 351 349 351 345 348 348 349 347 348 348 347 345 338 338 338 339 341 341 338 339 347 344 336 345 346 347 347 348 344 341 340 340 335 334 331 328
353 354 354 353 352 352 351 350 347 350 349 345 345 346 347 347 348 343 338 343 345 340 346 341 342 346 347 348 346 346 344 345 344 346 346 344 342 343 342 339 335 332 331
353 354 353 352 352 351 351 349 350 349 349 346 341 340 343 343 344 343 344 341 345 346 344 348 346 348 349 348 348 347 347 346 344 343 345 343 341 340 342 342 341 333 331
354 355 355 353 350 351 348 348 340 341 338 338 338 338 337 338 339 343 341 339 337 343 345 344 347 347 347 347 347 347 347 347 346 345 344 341 337 340 342 342 341 341 334
354 351 354 354 351 349 341 342 342 340 339 338 338 340 341 340 339 340 339 340 345 347 344 344 344 346 347 347 346 348 347 347 347 346 346 345 337 332 341 342 340 341 342
355 355 352 341 340 344 342 343 344 344 341 336 337 337 341 342 341 340 342 349 347 349 345 345 345 345 347 347 347 346 347 347 346 347 348 347 347 339 334 340 340 342 341
357 356 348 344 341 341 341 345 342 342 341 340 341 336 342 343 343 340 342 342 345 344 345 346 346 345 346 348 348 346 347 347 346 346 346 347 346 346 346 338 339 341 343
357 355 349 346 343 343 342 343 342 343 342 340 340 341 339 342 342 343 342 346 345 347 347 346 347 344 345 346 347 348 346 346 345 344 344 346 347 346 347 347 343 340 341
353 337 338 338 345 345 345 346 345 343 341 340 340 340 340 342 343 343 346 342 341 346 345 344 346 346 346 346 346 346 347 346 345 342 342 344 346 346 345 346 348 346 342
348 333 336 340 349 347 349 346 344 342 341 342 341 341 341 342 342 341 344 346 344 345 347 346 346 345 343 344 342 344 344 345 346 344 343 341 341 342 343 346 346 346 348
344 335 348 349 349 353 349 345 344 340 338 337 337 340 341 342 343 343 344 345 345 344 342 343 343 342 345 345 343 344 343 343 343 345 344 344 344 343 344 348 345 344 342
335 341 342 350 350 349 340 339 338 337 337 336 336 343 344 342 341 340 340 341 342 340 343 345 343 342 344 343 340 344 345 342 344 345 345 345 345 342 344 347 348 347 345
342 342 335 346 349 340 338 344 345 344 343 346 343 344 341 341 340 338 338 341 342 343 343 343 343 340 340 340 341 340 340 343 346 345 344 345 339 339 338 343 346 345 344
340 339 342 345 346 338 338 343 347 346 345 344 343 341 342 340 337 338 338 341 341 341 342 340 340 339 340 340 340 341 341 341 342 343 345 343 340 338 338 338 339 343 342
340 349 345 347 344 339 340 338 339 340 345 346 344 344 341 340 342 340 340 339 340 340 341 342 339 340 339 340 341 342 342 341 343 342 343 343 342 338 340 342 342 342 343
Wind_Speed
16 15 16 16 15 14 13 13 13 13 14 15 15 16 14 14 12 11 10 8 7 8 6 6 6 5 5 6 6 7 7 6 8 9 12 10 13 10 13 15 15 9 13
19 16 17 15 15 14 13 12 12 13 13 12 13 13 13 12 11 10 9 9 6 5 4 4 5 5 5 6 6 6 6 7 10 11 10 10 11 10 13 16 12 8 12
18 16 15 14 14 13 13 12 12 12 11 12 12 12 12 11 10 9 9 9 7 6 6 5 5 6 5 6 6 7 8 12 11 11 14 7 8 9 10 12 11 9 9
17 15 13 13 12 13 13 13 12 12 12 11 12 11 11 10 10 9 8 9 8 8 4 6 5 5 5 6 8 9 11 11 9 13 11 7 6 7 9 9 9 8 7
16 14 13 12 11 11 11 12 12 12 12 12 11 11 10 10 10 8 7 7 8 7 6 5 5 5 6 7 9 9 10 9 10 9 9 8 5 6 8 8 6 6 10
15 12 12 12 10 10 10 10 10 11 11 10 9 9 9 10 9 7 7 7 6 6 5 6 5 5 7 8 8 9 9 8 9 6 5 6 6 5 7 7 8 7 8
14 12 13 11 10 8 8 9 9 10 10 9 8 8 8 9 9 7 6 6 7 6 4 6 6 6 7 7 8 9 10 10 8 6 7 4 5 6 7 6 6 6 7
13 12 12 12 10 8 7 7 8 9 9 8 7 8 8 8 8 7 6 7 6 6 5 5 6 7 8 8 9 9 10 11 9 5 5 3 5 6 8 7 6 5 6
13 12 10 11 11 9 8 8 8 8 9 8 7 8 8 8 7 7 7 7 8 7 6 6 5 6 10 8 9 11 9 8 7 5 4 4 2 4 7 7 6 5 5
13 13 13 12 10 9 9 9 8 8 9 8 8 8 8 8 8 7 7 7 8 7 6 6 5 7 10 9 9 9 9 10 7 6 4 9 6 4 6 8 6 4 6
14 14 13 13 12 11 9 8 9 8 8 8 9 10 8 5 6 6 7 7 7 7 7 7 6 7 9 11 10 10 9 6 8 7 6 10 7 4 4 7 7 6 6
15 15 13 11 11 10 9 10 9 9 8 7 8 9 7 9 8 9 8 7 6 6 6 7 7 7 7 8 10 13 10 9 8 8 8 10 8 8 6 7 7 7 7
14 13 13 13 12 11 10 9 11 8 8 12 12 12 11 11 9 7 7 6 7 6 6 5 5 5 8 9 10 10 10 12 10 10 11 11 8 8 9 8 9 9 9
15 13 11 11 10 11 11 10 12 12 12 10 9 11 11 10 11 8 7 6 8 8 7 9 8 8 9 9 10 10 11 11 11 11 12 15 13 10 9 10 11 9 10
14 13 12 11 11 11 12 12 13 14 14 14 14 15 13 12 11 10 8 10 11 11 10 10 11 10 11 10 10 11 11 12 13 12 11 16 16 15 12 11 13 13 10
12 10 9 9 11 13 15 15 15 17 16 17 18 17 16 16 16 14 13 13 9 11 11 9 12 11 9 10 11 11 12 12 13 13 12 14 15 17 17 14 14 13 15
12 11 14 7 11 15 17 18 16 15 15 18 27 21 21 18 16 17 14 13 10 12 13 11 11 12 12 13 14 14 13 14 14 15 15 14 14 16 18 17 15 15 15
12 12 8 10 14 15 21 20 14 16 13 11 12 27 21 18 17 17 16 17 16 14 14 12 11 12 14 13 14 13 15 15 17 17 18 16 13 13 15 18 18 16 17
9 5 7 9 9 11 18 18 15 13 13 8 10 13 14 14 14 16 14 11 14 12 13 13 13 16 13 13 14 14 15 16 16 16 20 20 18 14 14 15 19 18 16
11 13 21 28 6 8 13 17 15 9 10 14 9 11 10 9 9 11 10 11 10 12 14 12 11 11 13 13 13 13 15 15 16 14 15 19 19 17 15 15 15 15 17
14 6 31 7 9 12 12 10 8 4 5 5 5 6 4 8 8 9 8 9 11 10 10 12 12 13 15 13 14 15 17 18 16 15 13 15 16 16 15 14 17 13 12
13 3 6 7 10 7 6 4 6 9 12 11 5 1 2 3 4 4 7 7 10 10 13 13 14 15 12 14 11 11 13 15 15 16 14 14 14 14 13 15 13 12 13
8 7 13 14 12 9 7 11 13 13 11 8 7 3 1 2 3 6 7 9 11 12 10 14 11 13 12 13 13 11 6 11 10 11 15 13 13 14 14 12 14 13 11
6 9 8 13 13 11 9 8 9 5 4 4 5 3 2 4 7 8 9 8 9 8 11 9 10 12 13 15 13 13 15 6 6 7 8 7 11 14 16 12 11 11 12
8 10 9 13 11 15 14 9 5 5 4 6 4 2 3 5 5 5 6 6 7 7 6 7 8 8 9 11 11 11 10 14 11 5 6 7 4 7 10 11 12 13 14
9 9 11 11 13 17 12 7 4 2 5 3 3 1 1 1 2 3 4 5 3 2 2 3 5 5 5 4 6 9 11 9 13 14 9 9 7 4 4 4 5 6 7
Wind_Direction
150 157 151 158 157 152 150 148 150 151 153 152 154 154 148 147 142 138 130 106 109 110 117 124 141 139 120 122 121 115 120 126 122 117 114 107 114 116 116 105 93 121 113
148 149 149 159 159 160 157 150 150 150 153 158 164 162 156 151 148 145 139 129 105 120 132 132 136 139 131 132 127 120 117 119 123 116 113 106 123 115 124 121 123 131 115
146 151 146 155 159 162 159 158 157 157 154 156 161 167 163 157 157 156 151 138 127 120 151 152 137 146 141 140 137 127 118 119 121 128 95 110 123 120 124 129 140 119 117
147 150 152 150 156 160 161 161 162 163 160 157 157 166 169 169 169 168 156 151 162 153 122 149 147 153 149 152 139 136 127 122 127 112 89 108 128 136 128 128 129 128 128
144 147 175 153 155 158 162 162 164 165 165 164 165 170 175 175 174 171 165 162 175 190 164 108 158 163 144 143 143 148 140 137 124 109 147 128 137 156 146 146 129 129 117
146 152 174 159 158 162 165 166 166 168 167 169 174 176 175 176 176 167 170 166 169 196 179 201 167 173 170 151 153 156 152 147 111 145 134 147 129 175 158 158 160 148 142
151 163 170 166 163 166 169 172 173 176 174 178 180 183 180 178 175 171 177 173 172 173 183 192 201 173 187 171 167 165 162 142 119 128 135 146 198 175 156 143 155 144 155
155 162 182 173 173 170 176 181 181 184 181 186 186 186 182 186 187 184 182 173 181 182 181 198 209 188 189 184 179 177 161 154 129 150 151 142 202 168 174 170 172 177 173
161 164 172 174 180 181 187 192 190 191 190 194 198 194 191 198 199 193 188 179 177 186 191 194 195 192 190 192 183 183 185 176 166 179 176 177 237 170 176 179 173 180 192
166 174 176 184 182 181 190 196 198 195 201 200 203 200 197 204 204 200 193 186 179 184 185 190 191 192 188 194 196 189 201 211 188 198 187 209 219 186 185 186 194 203 210
176 181 186 183 188 185 189 208 200 202 207 206 212 207 204 198 235 236 212 205 190 194 196 195 193 191 191 195 201 203 198 194 210 218 207 236 228 204 209 201 209 217 220
187 188 191 188 195 191 188 204 194 208 212 212 225 228 191 216 206 191 211 198 194 195 204 208 202 199 184 200 208 209 209 217 219 223 249 234 231 226 219 219 220 226 228
190 192 201 194 198 194 202 205 190 201 220 222 210 233 208 216 220 213 197 208 223 212 203 241 228 196 198 209 204 214 216 221 222 233 239 245 232 235 233 232 229 235 231
192 197 217 207 211 208 206 209 207 200 208 214 228 230 230 226 234 217 217 243 254 237 218 193 215 210 214 215 212 219 222 222 229 231 240 247 239 239 241 243 239 239 241
192 197 204 212 220 224 224 220 233 228 221 225 225 223 223 246 240 222 220 261 258 245 234 218 207 208 218 211 219 228 227 230 228 231 236 253 242 241 243 245 236 240 234
197 210 209 212 228 228 234 234 237 238 241 246 240 234 224 230 242 235 252 262 245 262 245 231 234 223 226 227 224 231 227 233 242 238 243 258 251 243 242 246 247 245 243
193 188 211 193 262 240 237 237 236 231 233 252 237 235 238 241 246 242 244 239 244 246 243 240 241 236 237 234 233 232 235 243 241 245 240 238 254 255 244 247 248 243 243
186 195 223 240 313 279 243 235 244 232 242 240 254 228 237 257 250 245 251 249 241 247 256 243 246 242 237 240 245 241 242 248 250 248 245 233 242 236 264 251 250 248 248
180 205 285 263 287 305 243 240 248 242 233 237 234 226 242 263 243 246 248 240 241 245 249 256 256 254 250 249 244 247 248 245 249 256 244 236 240 234 236 254 260 250 246
167 31 294 297 269 257 245 248 241 235 243 238 225 240 239 240 241 235 235 235 229 246 249 247 252 263 252 258 258 251 247 248 247 248 238 236 239 246 244 244 252 267 260
166 252 354 234 236 257 278 269 248 235 192 135 165 171 205 230 240 246 239 243 251 245 252 257 255 252 246 250 253 259 252 251 240 241 241 237 238 243 246 247 246 242 244
208 18 232 178 220 234 251 185 175 161 132 97 89 189 174 189 206 231 232 249 254 254 273 260 257 257 261 261 252 256 251 237 239 239 234 238 239 238 241 243 251 250 239
248 136 156 187 196 194 182 146 131 136 137 135 134 151 165 251 260 256 263 258 266 268 267 264 265 258 253 253 245 238 249 245 211 221 223 223 227 225 217 240 241 249 249
181 177 193 183 201 177 143 149 164 183 190 169 149 185 260 256 271 274 274 278 272 257 254 264 263 266 267 261 258 239 234 232 219 199 189 195 223 232 236 234 248 243 242
201 191 192 197 191 173 153 129 129 168 180 170 182 205 263 298 284 307 304 295 278 265 270 279 288 284 281 267 241 241 235 239 229 215 186 178 165 213 228 238 249 241 248
189 159 181 187 179 179 164 141 126 161 151 163 172 162 115 39 3 354 324 305 261 257 294 321 320 322 313 270 248 239 239 235 236 236 228 182 166 138 191 186 208 223 220